Theta_e
325 324 324 322 322 322 322 321 322 321 320 318 315 312 307 305 306 306 305 304 304 303 303 303 303 303 303 304 304 304 304 303 304 304 304 304 307 307 309 313 317 318 320 320 320 320 320 320 320 320 320 321 322 321 321 320 321 322 322 321 321 321 320 320 320 321 321 321 322 322 323 323 323 323 324 324 324 326 326 327 328 328 329 330 331
324 324 322 321 321 321 321 320 320 319 317 314 312 309 305 305 305 304 303 303 302 303 302 303 302 303 303 303 303 302 304 303 304 303 303 305 306 307 307 311 315 318 318 319 319 319 318 318 319 320 320 320 321 320 320 319 320 321 320 321 320 320 320 319 319 319 320 320 321 321 321 321 322 322 322 323 323 324 324 325 325 326 327 328 328
324 323 321 320 319 319 318 318 317 316 314 312 310 307 305 304 304 303 303 302 302 302 301 301 302 302 302 303 303 303 303 303 302 303 302 304 305 307 309 309 312 315 317 317 317 318 318 318 319 319 320 319 319 319 319 318 319 321 320 319 319 319 319 319 318 319 319 319 320 319 319 320 320 321 321 322 322 322 322 323 323 324 325 325 326
324 322 320 319 318 317 316 316 315 314 312 310 307 306 305 305 306 305 305 303 302 301 302 300 300 300 302 303 302 302 301 303 302 302 303 304 304 306 309 310 308 310 313 317 317 318 317 317 317 318 318 318 318 317 318 318 319 319 318 319 318 317 318 317 317 318 318 319 318 318 318 320 320 320 320 320 320 320 321 322 322 323 323 323 324
323 321 318 317 317 315 314 314 313 312 311 309 306 306 305 305 305 305 303 303 301 301 303 301 300 300 300 301 301 302 302 302 302 302 302 303 303 304 308 311 309 307 307 310 314 317 316 316 316 317 317 317 316 317 317 318 317 318 318 318 317 317 317 316 316 317 317 318 318 318 318 319 319 319 319 319 319 319 320 320 321 321 322 322 322
322 320 317 316 315 314 313 312 312 311 309 307 304 303 303 303 303 302 301 301 300 300 299 300 299 299 300 301 301 301 301 301 301 302 302 303 303 304 305 309 310 308 306 305 307 310 315 316 316 316 317 316 316 316 316 316 317 317 317 317 316 316 317 316 316 316 316 317 317 317 317 318 318 318 318 318 318 319 318 318 319 319 320 320 321
321 318 316 315 313 312 312 310 311 309 306 306 304 302 302 301 300 299 299 300 300 298 298 299 298 298 299 299 300 300 301 300 301 302 301 303 302 303 303 303 305 306 306 304 304 304 309 313 314 314 315 315 315 316 316 316 316 316 316 316 315 316 316 315 315 316 316 316 316 316 316 317 317 317 317 317 317 317 317 317 317 318 318 319 319
319 317 315 314 312 310 310 310 309 306 306 305 303 300 300 301 300 301 297 299 299 298 299 298 298 298 299 299 299 299 299 299 300 300 301 300 301 301 302 301 302 301 301 301 301 301 304 307 310 312 314 314 314 315 315 315 315 315 315 315 314 315 314 314 314 314 314 315 315 315 315 315 315 315 315 315 316 316 316 316 316 317 317 317 318
317 316 314 313 311 310 309 309 307 305 304 303 301 301 301 302 299 300 300 299 299 298 299 299 299 299 299 299 300 299 299 299 299 300 301 300 300 300 299 298 297 298 299 298 298 299 300 304 306 308 309 312 313 314 313 314 314 314 315 314 315 313 313 313 313 314 314 313 313 314 314 314 314 314 314 314 315 315 315 315 315 315 316 316 317
316 315 314 312 311 309 308 307 305 304 303 302 301 300 301 301 299 301 299 299 298 297 297 298 299 298 298 298 298 298 299 299 298 298 298 298 298 298 298 297 298 298 298 299 298 297 298 300 302 303 304 308 312 315 316 313 313 314 315 314 314 313 313 312 312 312 311 312 312 312 312 312 312 312 312 312 312 312 313 313 314 314 314 315 315
314 313 312 310 309 307 306 306 304 303 302 301 300 300 301 301 300 299 300 300 298 298 297 298 298 298 298 297 298 298 298 298 297 298 298 299 298 297 299 297 297 297 297 298 297 298 299 300 299 301 301 304 308 311 313 316 312 314 314 314 313 312 312 312 311 310 310 310 310 310 311 311 310 311 311 311 311 312 312 312 313 313 314 314 314
313 312 312 309 307 306 305 304 303 302 301 300 298 299 300 300 300 299 299 299 300 298 299 298 297 296 296 296 297 297 296 297 298 298 297 296 295 296 295 296 296 296 296 296 296 297 297 298 297 298 300 302 304 306 307 310 313 313 312 314 313 313 310 311 309 309 309 309 309 309 309 309 309 310 310 311 311 311 312 312 312 313 313 314 314
312 311 310 308 307 306 304 303 302 301 300 300 300 300 301 300 300 299 299 298 298 299 299 298 295 293 294 295 294 295 295 295 295 296 296 295 295 295 294 294 295 295 295 296 296 297 297 298 299 298 300 303 302 301 302 303 305 312 314 312 313 311 311 310 309 307 307 308 307 307 308 309 309 309 310 310 310 310 311 312 312 312 313 313 313
310 310 309 308 306 305 303 302 300 300 300 300 301 299 300 300 300 297 299 297 297 298 298 296 293 292 291 291 291 292 293 293 293 294 295 295 295 295 294 294 294 294 294 294 295 295 296 297 299 299 300 302 301 299 297 297 299 307 310 311 311 311 311 309 308 307 307 307 307 307 308 308 308 308 308 308 309 309 309 310 311 311 312 312 312
308 308 307 307 306 304 303 301 300 299 299 299 299 299 300 299 298 296 295 297 297 299 297 296 293 295 295 292 289 289 291 291 293 293 293 294 295 294 294 294 294 294 294 294 293 294 295 296 297 297 298 299 298 295 293 294 295 297 302 305 307 308 309 308 307 305 305 306 306 306 306 306 306 307 307 307 308 308 309 309 310 310 311 311 311
307 307 306 306 305 304 302 301 300 299 299 298 298 299 299 299 298 297 296 293 294 295 298 296 296 295 290 291 291 291 289 288 289 291 293 293 293 293 293 292 293 294 294 293 293 293 294 295 296 296 297 298 297 296 295 294 294 294 295 297 301 304 305 306 306 305 305 305 306 305 304 304 305 305 306 306 307 307 308 308 308 309 309 309 309
307 306 305 304 304 303 302 300 299 299 298 298 298 299 298 299 298 297 296 294 293 294 296 296 300 299 296 292 291 290 290 292 289 288 291 291 292 292 292 292 292 292 292 293 294 294 294 294 295 296 296 297 296 296 295 295 294 294 294 295 298 300 303 304 305 305 304 304 305 305 304 304 304 304 305 306 306 307 307 307 308 308 308 308 308
306 305 304 303 303 303 302 300 299 298 298 297 298 298 298 298 298 298 297 297 296 293 294 296 299 302 302 302 300 293 293 292 290 286 289 291 291 292 292 292 293 292 293 292 293 293 293 293 294 295 296 296 296 296 295 293 292 293 293 295 297 298 299 301 302 304 304 303 303 304 304 304 304 304 305 305 306 306 306 307 307 307 307 308 308
305 305 304 303 303 302 302 300 299 298 298 297 297 298 298 298 298 297 297 297 297 293 293 293 297 298 300 299 298 295 300 291 290 290 284 288 290 290 291 292 292 292 292 292 292 292 292 293 294 294 295 296 295 294 292 291 291 291 292 294 296 297 297 297 298 300 301 301 302 302 303 302 303 303 304 304 304 305 305 305 306 306 306 307 307
303 303 304 303 302 302 301 301 299 299 298 297 297 298 299 299 299 297 298 297 297 294 293 293 292 293 296 296 296 297 297 302 301 293 291 285 287 291 291 291 291 291 292 291 291 292 292 292 293 293 294 295 294 294 293 292 291 290 290 293 294 295 295 295 295 296 297 299 300 301 301 301 302 302 303 303 303 304 304 305 305 305 306 306 306
302 302 302 302 301 301 301 300 299 298 297 297 297 298 298 298 297 297 297 296 296 296 295 293 292 292 294 294 295 294 294 298 301 301 294 289 289 287 287 290 290 290 291 291 291 292 292 292 293 293 293 294 294 294 293 292 290 288 289 291 292 293 294 295 295 295 294 294 295 297 298 299 300 301 301 303 303 303 304 304 303 304 305 305 305
300 301 301 301 301 300 300 300 300 299 297 297 297 297 298 298 297 296 296 296 296 296 296 294 294 293 294 294 292 293 294 295 295 296 299 297 290 287 288 287 285 288 290 290 291 291 292 292 292 293 293 293 293 293 293 292 290 289 288 289 290 291 292 294 294 294 294 294 294 294 295 296 298 299 300 301 302 303 303 303 303 304 304 304 304
299 299 300 300 300 300 299 300 300 299 298 297 296 296 297 298 298 297 296 296 295 296 296 296 295 293 295 293 293 293 293 291 291 294 294 292 293 290 289 289 287 287 288 290 290 291 291 292 291 292 292 292 293 293 292 290 289 288 288 288 289 290 291 292 293 293 293 293 293 293 294 294 295 296 298 300 300 302 302 302 303 303 303 303 303
299 298 298 299 299 299 299 299 299 299 298 298 297 296 297 297 297 296 295 295 295 294 295 295 295 293 294 294 294 295 295 294 294 295 294 293 294 292 290 289 289 289 290 289 290 290 290 290 291 292 292 292 292 292 291 289 287 287 287 286 287 288 290 292 292 292 292 292 292 291 292 293 293 294 295 297 298 299 300 301 302 302 302 302 301
298 297 298 298 298 298 298 297 297 298 298 298 297 297 296 296 295 295 294 293 293 294 293 294 295 293 294 294 294 295 294 296 297 296 295 296 294 292 291 290 288 288 288 288 287 289 290 290 291 292 292 291 292 291 290 289 286 285 287 286 286 286 287 289 290 291 291 291 291 291 290 291 292 293 294 295 296 297 298 300 300 300 300 300 300
299 298 298 299 298 298 298 298 298 298 298 298 297 297 296 295 295 294 293 293 293 293 293 293 294 295 295 294 293 294 295 296 296 297 295 294 292 291 289 290 291 287 287 286 287 286 288 290 291 292 291 291 290 290 289 289 286 285 284 286 285 285 286 288 289 289 289 290 290 290 290 290 290 291 293 294 295 295 295 297 298 298 299 299 299
298 299 300 299 298 298 298 297 297 297 297 297 297 296 296 295 294 294 293 294 293 292 292 292 292 294 294 294 294 294 294 295 296 297 297 295 295 293 289 286 287 286 284 285 286 286 287 288 290 290 291 290 290 289 289 288 287 285 284 285 286 284 284 285 287 289 289 289 289 289 289 289 290 291 292 292 294 293 294 295 295 295 296 296 297
298 299 300 299 298 297 297 296 296 296 296 296 295 295 295 294 293 293 293 294 292 292 292 292 292 292 293 294 293 293 294 295 296 297 297 297 296 295 291 289 286 283 284 283 284 285 288 286 289 290 290 290 290 289 289 288 285 285 284 286 286 284 284 285 286 287 288 288 288 288 289 289 290 291 291 291 292 292 292 294 293 294 294 294 294
297 298 298 298 298 296 296 295 295 295 295 295 294 294 294 294 293 292 292 292 292 292 292 291 291 292 292 292 292 293 293 294 294 295 296 296 296 295 293 291 290 286 282 281 283 283 286 288 285 287 290 290 289 289 286 286 286 285 286 285 285 286 285 284 285 286 287 288 288 288 288 289 289 290 290 291 291 291 292 292 292 292 292 292 292
296 297 297 296 296 295 295 295 295 295 294 294 294 294 293 293 293 292 292 292 291 291 291 291 290 291 291 291 291 292 292 293 293 293 293 295 294 295 294 293 292 288 286 283 283 286 285 288 287 286 288 288 288 287 286 286 286 285 285 285 284 284 285 284 285 286 286 287 287 288 288 289 289 289 290 290 290 290 291 291 291 291 291 292 293
294 295 295 295 295 295 294 294 294 294 294 294 293 293 293 292 292 291 292 292 291 290 290 290 290 290 289 289 290 291 291 292 292 292 292 293 294 294 293 293 292 291 289 286 284 286 288 286 287 288 287 287 287 286 286 286 284 285 285 285 284 284 283 283 283 284 285 286 286 287 288 289 289 289 290 289 289 290 291 291 290 290 290 291 292
293 293 293 293 293 293 293 293 293 293 293 293 293 292 292 292 291 291 291 291 290 289 290 290 290 289 289 288 289 290 290 291 291 291 291 291 292 292 292 292 291 291 291 288 287 286 289 287 287 287 287 286 286 285 285 285 284 284 284 284 284 283 281 281 283 284 284 285 286 287 288 289 289 289 289 289 289 289 290 290 290 290 290 291 292
292 291 292 292 292 293 293 292 292 292 292 292 292 292 291 291 291 290 290 290 289 289 289 289 289 289 288 288 288 289 289 289 290 290 290 290 290 290 291 291 290 290 289 289 287 285 286 288 287 286 286 286 284 285 283 283 281 281 283 283 283 282 282 282 283 284 284 285 285 286 288 289 289 289 289 288 288 289 289 289 289 289 290 291 290
291 291 291 291 291 292 292 292 292 291 291 291 291 291 290 290 289 290 290 289 288 288 288 288 288 289 288 287 287 287 288 288 289 289 289 289 289 289 289 289 288 289 289 288 287 285 283 285 285 286 285 285 283 285 283 283 281 281 280 281 282 282 282 282 283 284 284 284 285 286 287 288 289 289 288 288 288 288 288 289 289 289 290 290 289
290 290 290 290 290 290 290 291 291 291 291 291 291 290 290 289 289 289 289 289 288 288 287 288 288 288 287 287 286 287 288 287 288 288 288 288 288 288 287 288 287 287 287 288 287 285 283 283 284 283 283 284 283 283 284 284 283 282 281 281 281 282 283 282 282 284 285 285 285 286 287 288 289 288 288 288 287 287 288 288 289 289 289 289 289
288 289 289 289 289 289 289 289 290 290 290 290 290 290 289 289 289 288 288 288 288 288 287 287 288 287 287 286 286 286 286 286 286 286 287 287 287 287 287 287 287 286 286 287 287 285 284 282 283 282 283 282 283 284 284 283 282 281 281 281 282 281 281 282 282 282 284 286 286 286 287 288 288 288 287 287 287 287 287 288 288 288 288 288 287
287 287 287 288 288 288 288 288 288 289 289 289 289 289 289 289 288 288 288 288 288 288 288 288 288 287 287 286 286 286 285 285 285 285 286 286 286 286 286 286 286 285 285 285 285 285 284 283 282 283 283 282 283 283 282 280 280 280 281 280 281 281 281 282 282 283 284 286 285 285 286 287 287 287 287 287 287 287 287 287 287 287 287 287 286
287 287 287 287 287 287 287 287 287 288 288 289 289 289 289 289 288 288 288 287 287 287 287 287 288 288 287 287 286 286 285 284 285 285 285 285 286 285 285 285 285 285 284 284 284 284 284 283 282 281 282 281 281 280 281 280 279 278 279 280 281 281 281 280 281 282 283 283 282 283 284 285 286 286 286 286 286 286 287 286 286 286 286 285 284
285 286 286 286 287 286 286 287 287 287 287 288 288 288 288 288 288 287 287 287 287 287 287 287 287 287 287 287 286 286 285 285 285 285 285 285 285 285 285 285 285 284 283 283 283 283 283 282 282 281 280 281 280 278 279 280 280 279 278 278 278 280 281 280 280 281 282 282 283 284 283 283 284 284 285 285 286 286 286 286 286 286 285 284 284
286 285 285 285 286 287 287 286 287 287 287 287 287 288 288 287 287 287 287 286 286 286 286 286 286 286 286 286 286 286 286 286 285 285 285 284 285 284 285 285 284 284 283 283 282 282 282 282 281 280 280 279 279 279 280 279 278 278 279 279 277 278 279 280 280 281 281 281 281 282 284 284 284 284 284 285 285 285 285 284 284 284 283 283 283
286 286 286 286 285 285 286 286 287 287 287 287 287 287 287 287 287 286 286 286 286 286 285 285 285 286 286 286 286 286 286 286 286 286 286 286 285 284 284 284 284 284 283 283 282 282 282 282 280 280 279 278 278 277 276 276 276 277 279 279 279 280 280 280 280 282 282 280 281 281 280 281 280 281 281 280 281 283 282 283 282 283 283 283 283
285 285 285 285 285 285 285 285 286 287 287 287 287 288 289 287 286 286 286 286 285 285 285 285 285 285 285 286 286 286 285 285 285 286 287 287 287 286 285 284 284 284 283 283 282 282 281 281 280 279 278 277 278 278 277 277 278 279 279 279 278 280 280 279 280 281 282 281 280 280 281 282 281 279 280 279 281 281 280 280 280 282 282 283 283
284 285 284 284 284 285 285 285 285 286 286 287 288 290 290 290 288 287 286 286 285 285 285 284 284 284 284 285 285 285 285 285 285 286 287 288 288 288 288 287 286 285 283 283 282 282 281 281 281 280 279 278 278 279 278 278 278 278 278 279 279 280 278 277 276 279 282 281 280 279 279 281 280 278 278 279 279 280 280 280 282 282 282 283 283
284 284 283 284 284 284 284 284 284 285 286 287 289 289 290 290 290 287 286 286 286 286 285 285 285 285 284 284 285 285 285 285 285 284 285 287 287 288 288 288 287 288 287 285 283 282 281 281 280 280 280 279 278 279 278 278 278 279 280 279 278 278 278 277 278 277 280 281 279 279 279 280 279 278 277 279 279 280 280 281 283 283 283 283 283
283 283 283 283 283 284 284 284 284 284 285 287 288 289 289 290 290 289 287 286 286 285 285 285 285 285 285 284 284 285 285 285 285 284 284 284 286 287 287 287 287 288 288 288 288 285 284 282 281 280 280 280 278 278 279 279 280 279 279 278 278 278 279 278 279 279 279 281 279 278 277 278 278 277 277 278 279 279 280 281 283 283 283 283 283
281 282 282 282 282 282 283 283 283 283 284 286 288 288 288 289 289 289 287 286 286 286 285 285 285 285 285 284 284 284 285 284 284 284 284 284 283 284 284 284 284 285 287 287 287 286 285 283 282 281 281 281 280 280 280 282 280 279 279 278 279 278 279 279 280 279 280 281 278 277 275 276 277 277 276 277 279 279 279 280 282 283 283 283 283
278 279 280 280 281 281 281 282 282 282 283 286 287 287 287 288 289 289 287 287 286 286 286 286 285 285 285 285 285 284 284 284 284 284 283 283 283 283 283 283 283 283 283 284 284 284 283 282 282 282 282 282 281 281 281 282 281 281 281 280 280 279 279 279 278 278 278 279 277 276 273 276 277 276 276 277 279 278 278 280 282 282 283 283 283
276 278 278 279 279 280 280 280 280 280 282 284 285 287 287 287 288 287 286 286 286 286 286 286 286 286 285 285 285 284 284 284 285 286 286 283 283 282 282 282 282 282 282 284 285 286 283 281 281 281 281 281 283 281 282 281 281 281 281 281 280 279 277 276 274 277 275 278 276 275 274 274 277 275 276 277 277 276 277 277 280 281 282 282 282
274 275 276 277 278 278 278 279 279 280 281 283 285 286 286 287 287 285 285 285 285 285 285 286 286 286 286 286 285 284 284 284 285 287 287 286 282 281 281 281 281 281 281 282 285 286 285 283 283 284 284 285 285 285 285 285 282 282 280 277 276 277 275 274 274 275 274 276 275 275 275 273 276 275 275 276 276 275 275 276 277 279 281 281 282
272 273 275 276 277 277 277 278 279 278 279 281 283 284 285 286 286 284 284 284 284 284 285 286 286 286 286 285 285 285 284 284 286 288 288 285 282 281 281 280 280 280 280 281 282 283 284 283 283 284 284 285 285 285 286 285 285 283 278 275 276 276 275 275 273 274 275 275 274 276 273 272 275 276 274 275 274 274 275 275 276 277 279 280 281
272 273 274 275 275 275 275 275 277 277 277 279 282 283 284 284 284 283 284 283 283 283 284 284 286 286 286 286 286 286 285 285 286 288 288 286 282 281 281 280 279 279 280 280 280 280 279 279 279 280 281 283 283 282 283 284 284 282 279 278 277 275 274 274 274 273 271 273 275 276 271 272 273 274 273 270 270 273 275 275 276 276 276 276 276
Wind_Speed
9 9 9 9 8 8 8 8 8 7 8 7 6 6 5 5 5 5 4 4 4 4 3 3 2 2 2 2 1 2 1 1 1 1 1 1 2 4 7 9 9 5 4 3 1 2 2 2 2 2 2 3 4 4 5 3 4 7 8 6 6 7 7 6 6 6 5 6 7 8 8 8 8 8 8 8 8 9 9 9 10 10 11 11 11
9 9 9 9 9 8 8 8 8 7 7 6 6 6 5 5 5 5 5 5 5 4 4 3 2 2 2 2 2 1 1 1 1 1 1 1 2 4 6 8 10 8 4 3 3 2 0 0 1 2 2 3 3 3 4 2 3 6 5 6 5 6 6 6 6 6 5 6 7 7 6 6 7 8 8 8 9 9 9 9 9 10 10 10 10
10 10 9 9 9 9 8 8 7 7 7 6 5 5 5 5 6 6 6 5 4 4 4 4 3 2 2 2 1 1 1 1 1 1 1 1 2 3 3 7 10 11 7 3 3 2 2 1 2 3 3 3 3 2 2 2 3 6 5 4 5 5 6 5 5 5 5 6 6 6 6 7 7 7 8 8 9 9 8 8 9 9 10 10 10
10 10 10 10 9 9 8 8 8 7 7 6 6 5 5 4 5 4 4 4 5 4 3 4 3 3 3 2 1 1 2 1 2 1 1 2 2 3 3 4 9 12 14 11 5 6 3 1 1 1 3 3 3 3 3 4 3 3 2 5 4 4 6 5 4 4 5 6 5 6 6 7 7 8 8 8 8 8 8 8 9 10 10 10 10
10 11 10 9 9 9 9 8 8 7 7 7 7 5 5 4 4 4 4 4 5 5 3 3 4 3 3 3 2 1 1 1 1 2 2 2 2 2 3 3 5 9 13 14 15 8 4 2 2 2 1 3 1 3 1 1 2 4 4 3 4 5 6 5 4 4 4 5 5 6 6 7 8 8 8 8 8 9 9 9 9 9 10 10 10
9 10 9 9 9 9 9 8 8 8 7 7 7 6 5 5 5 5 5 4 5 5 5 4 4 4 3 3 2 2 1 1 1 2 2 2 2 2 3 3 3 4 4 11 13 15 10 5 4 5 5 3 3 2 4 3 2 2 3 4 2 4 5 4 5 5 5 5 6 6 6 7 8 8 8 8 8 9 9 9 9 9 9 10 10
10 9 10 9 9 9 9 8 8 8 7 7 7 6 5 6 6 6 5 4 4 5 5 4 4 4 3 3 2 2 2 2 2 2 1 1 2 2 2 2 2 3 3 3 7 12 13 13 8 5 4 2 3 4 4 5 4 3 3 4 3 4 4 4 4 6 5 6 5 6 6 7 7 8 8 8 9 9 9 9 8 9 9 9 9
10 9 9 9 8 8 8 8 9 8 7 7 7 7 6 6 6 6 6 5 6 5 4 4 4 4 3 3 3 3 3 2 3 3 2 2 2 2 2 2 2 2 2 3 4 6 12 11 12 11 8 6 1 4 4 4 4 5 4 4 4 4 3 4 5 5 5 6 6 7 8 8 8 8 8 8 8 8 8 8 8 9 9 9 9
10 9 8 9 8 8 8 9 8 8 8 8 8 7 7 6 6 6 5 6 6 6 5 5 4 4 3 3 3 3 3 3 4 3 2 2 3 3 3 3 3 2 1 2 3 3 6 10 11 12 13 10 6 3 2 3 4 5 6 6 6 4 5 5 6 7 7 6 7 7 8 8 8 8 9 9 9 9 9 8 9 8 9 9 10
10 9 8 8 7 7 7 8 8 8 7 8 8 7 7 8 8 6 7 7 7 8 7 6 4 4 4 3 3 2 2 3 3 4 3 4 3 3 3 4 3 2 2 2 2 3 3 4 7 10 12 12 12 14 13 2 5 6 7 7 6 6 7 5 6 5 5 6 6 7 7 8 8 8 7 7 7 7 7 7 8 7 8 8 9
9 9 8 7 7 7 7 8 8 8 7 8 8 8 8 9 8 8 7 6 7 7 7 6 5 4 4 4 3 2 2 3 3 3 3 3 4 3 2 3 3 2 3 2 2 2 1 1 2 3 5 11 12 13 13 19 2 7 7 7 7 6 5 6 5 4 5 5 6 6 6 6 6 6 6 7 7 7 6 7 7 7 8 8 8
8 8 8 7 7 7 6 7 7 8 8 9 9 9 11 11 10 10 9 6 5 7 7 8 7 6 5 4 3 3 3 3 3 3 3 3 4 3 3 3 3 3 3 2 2 2 2 1 2 3 3 6 10 12 16 16 17 5 3 9 7 7 5 5 4 4 5 5 6 5 5 5 6 7 7 7 7 7 7 8 8 9 9 9 10
8 8 9 8 7 6 6 6 7 7 7 8 9 9 9 9 8 8 10 8 6 7 8 8 8 6 4 4 4 3 3 2 4 3 3 3 3 3 3 3 3 3 2 2 3 2 2 1 1 2 4 3 4 9 12 15 17 12 14 4 8 6 5 4 3 3 4 4 4 5 6 7 7 7 7 8 7 8 8 8 9 9 9 10 10
8 8 8 8 8 7 7 7 8 7 7 7 8 7 9 9 8 7 6 10 8 9 9 10 6 7 7 5 4 4 3 2 3 4 3 3 3 3 3 3 3 3 3 3 3 3 2 2 2 2 2 2 3 3 5 7 10 18 13 12 9 5 6 4 4 3 3 4 5 6 6 7 6 6 7 7 7 7 8 8 8 9 9 10 10
8 9 8 9 8 8 7 7 8 7 7 8 8 9 9 11 11 9 8 6 6 8 11 10 7 7 6 5 4 4 3 3 4 5 5 4 3 4 4 4 3 3 3 3 4 3 2 2 2 2 2 2 3 4 5 6 9 14 16 12 6 4 3 4 4 3 2 3 5 5 6 6 5 6 6 7 7 8 8 8 9 9 10 10 10
8 9 7 8 9 9 7 7 9 8 7 8 9 9 9 9 10 11 10 9 7 8 10 11 7 11 7 6 5 4 3 7 7 6 7 6 6 5 4 4 4 3 3 3 3 4 4 3 3 3 3 3 3 4 4 5 10 12 12 9 8 4 2 3 4 4 3 3 4 5 4 5 5 6 6 7 8 8 9 9 10 9 10 10 10
9 10 9 9 9 9 8 8 9 9 8 8 8 9 10 10 11 11 12 10 9 6 9 11 8 9 6 6 3 4 7 5 9 5 7 6 6 6 5 6 5 5 4 3 3 4 4 4 4 3 3 3 3 4 5 5 5 6 6 6 5 4 4 3 4 4 3 3 3 4 4 4 5 5 7 8 8 9 8 9 9 9 9 9 9
9 10 10 10 10 10 9 8 9 8 9 9 8 8 10 11 12 11 12 11 8 8 7 9 9 6 4 1 1 3 5 8 8 4 5 6 6 6 6 6 5 5 4 5 5 5 5 5 4 4 4 3 3 3 4 4 5 4 4 4 5 5 4 4 4 4 4 3 2 3 4 4 6 6 7 7 8 8 8 9 9 9 9 9 9
8 9 10 10 10 10 10 9 9 9 9 9 10 10 9 11 10 11 10 10 9 10 12 9 3 4 4 3 2 2 1 11 6 7 4 5 6 7 7 7 6 6 5 6 6 5 5 5 5 5 4 4 4 4 4 6 7 7 6 5 6 6 6 4 4 3 4 3 3 3 4 4 5 6 6 7 7 6 7 7 8 8 8 8 9
8 9 9 9 10 10 10 10 10 10 9 10 10 8 6 8 10 12 9 11 12 11 11 10 11 9 8 4 2 2 3 3 4 9 6 8 7 6 6 7 6 6 6 7 7 6 6 6 6 5 5 4 4 4 5 6 6 5 4 5 6 6 5 6 5 4 4 4 4 4 4 4 5 5 6 6 7 7 7 7 7 7 8 8 9
8 8 8 9 9 10 10 10 10 10 10 10 10 9 10 10 10 11 12 11 10 10 9 11 13 12 8 6 5 5 4 5 2 4 4 5 6 10 8 6 6 6 7 7 6 6 6 6 6 6 5 5 4 4 5 5 5 5 4 6 5 5 5 5 6 6 5 4 4 4 4 5 5 6 6 6 6 6 6 6 6 7 7 7 8
7 8 8 9 10 10 10 10 10 10 9 10 11 11 11 11 12 13 13 12 10 11 11 10 12 11 12 9 10 6 4 4 4 6 4 6 7 10 10 11 10 8 7 8 8 7 7 6 7 6 6 6 5 5 4 5 5 5 5 6 5 4 4 4 5 5 4 4 5 4 5 5 5 5 5 5 5 5 5 5 6 6 7 7 8
4 6 8 8 9 9 9 9 10 9 8 9 11 10 9 10 10 13 13 13 11 11 11 9 9 11 10 10 11 12 12 11 10 8 7 4 3 7 8 9 8 8 9 8 8 8 7 6 7 7 6 6 6 5 5 5 6 7 9 6 5 5 4 4 3 3 3 3 4 4 4 4 5 5 5 4 4 5 5 5 6 6 6 7 7
4 5 6 8 7 8 8 9 9 10 11 9 9 9 8 8 9 10 12 13 12 10 11 11 10 10 11 10 11 11 10 9 8 8 8 6 6 7 7 7 5 5 5 7 7 7 7 7 7 7 7 6 6 5 6 6 5 10 7 7 6 5 4 3 2 3 2 3 3 4 4 4 4 4 4 4 4 4 4 4 5 5 5 6 6
4 5 6 7 7 8 8 9 9 9 10 9 9 11 10 9 10 11 12 13 14 13 12 13 11 12 11 11 10 10 10 9 6 6 6 5 6 4 4 8 5 6 6 7 5 6 6 7 7 7 7 7 5 5 6 6 6 5 5 7 7 5 4 3 2 1 1 1 2 2 3 3 3 3 2 2 3 4 4 4 4 5 5 5 6
6 6 5 6 7 8 8 8 9 9 9 9 9 10 10 9 10 11 12 12 12 14 13 13 12 11 9 10 11 10 10 9 9 6 8 6 5 7 7 3 2 3 4 5 5 5 6 6 6 6 6 6 6 6 6 6 6 7 3 4 7 6 4 4 2 1 0 0 1 1 1 1 2 1 1 2 2 3 3 4 4 4 4 5 5
7 6 5 5 6 7 7 8 7 8 8 8 8 9 9 9 9 10 10 10 12 12 13 14 14 14 11 10 10 10 9 9 9 8 8 9 7 7 10 8 3 3 4 4 5 9 5 6 7 7 7 6 6 6 5 5 7 10 7 3 5 7 5 4 2 1 1 1 2 2 2 3 2 2 1 2 3 3 3 3 4 5 5 6 7
7 7 5 4 4 5 6 7 7 7 8 8 7 8 9 10 10 10 11 8 11 13 13 13 15 15 14 12 10 11 10 9 9 8 7 7 7 7 10 11 10 5 4 5 6 6 8 6 5 7 7 7 6 6 6 7 6 9 5 3 3 6 7 5 4 2 2 2 3 3 4 4 3 3 2 2 3 3 4 4 4 6 6 6 7
6 6 5 3 3 4 5 6 7 7 7 8 8 8 9 9 11 11 11 10 11 13 12 13 13 13 13 15 13 11 11 10 8 8 7 6 6 6 10 11 10 9 7 8 9 8 9 10 7 9 9 8 7 6 6 5 8 8 4 3 3 2 7 6 4 4 3 3 3 4 5 5 4 4 4 4 3 4 5 4 4 5 5 6 6
6 5 5 5 5 6 6 6 6 7 8 8 8 9 9 9 10 11 11 9 11 11 11 12 12 12 13 13 13 12 11 10 10 9 8 7 7 6 8 9 9 10 9 10 9 9 7 9 7 7 9 9 7 6 6 5 10 8 4 4 3 3 7 6 5 5 5 5 4 5 6 7 6 5 4 5 5 5 6 5 5 5 5 7 7
5 5 5 5 5 5 5 6 7 7 8 8 8 8 9 10 10 9 10 10 10 12 12 11 12 11 13 15 14 14 12 11 10 9 8 8 7 6 6 8 8 8 8 7 6 5 9 9 8 7 10 10 8 7 6 5 8 7 5 4 3 5 6 4 5 6 6 5 5 6 7 8 7 6 5 5 6 6 7 6 6 6 6 7 8
5 5 5 6 6 6 6 6 7 7 7 8 8 9 8 10 9 9 10 11 12 13 12 11 10 11 14 14 15 14 13 11 10 10 9 9 8 7 7 6 7 8 7 7 8 4 5 8 9 8 11 10 9 8 7 4 7 10 4 4 4 8 4 4 7 8 7 7 7 7 9 9 8 7 7 7 7 8 7 7 7 7 7 8 7
7 6 6 6 6 6 6 6 6 7 7 8 7 8 9 9 10 11 10 11 13 12 12 13 12 12 14 14 15 15 13 12 12 10 10 10 8 7 7 6 6 6 6 7 8 5 2 3 6 7 9 10 8 8 8 6 6 5 5 3 5 4 3 3 3 9 10 9 9 9 10 10 9 8 7 7 8 8 7 7 7 7 8 7 7
8 8 8 7 6 6 6 7 7 7 8 8 8 8 9 9 10 8 9 11 12 13 13 14 13 11 12 14 15 14 12 14 12 12 11 10 10 10 9 8 8 7 6 5 6 7 7 4 5 6 7 9 8 8 10 10 8 6 6 4 3 3 3 3 3 4 11 10 10 10 10 11 10 9 8 8 8 7 8 8 8 8 8 8 7
9 9 8 8 8 7 7 7 7 7 7 8 8 8 9 10 11 10 10 11 12 13 13 15 14 12 13 15 16 13 10 13 14 13 10 11 11 12 12 9 10 9 8 7 6 6 10 7 7 8 8 8 8 10 9 7 6 6 6 5 4 3 2 3 3 3 10 13 12 12 12 13 12 11 10 9 8 8 8 9 9 9 9 8 8
9 9 9 9 8 7 7 7 8 7 8 9 9 8 10 10 10 11 10 12 13 13 13 14 13 13 14 15 15 14 12 14 14 14 13 12 12 12 12 10 11 10 9 9 9 4 7 9 8 9 8 8 7 5 6 5 6 6 5 4 3 3 3 4 4 3 7 14 14 14 14 14 13 12 11 10 9 9 9 10 10 9 9 8 7
8 8 8 8 8 8 7 8 8 9 9 9 9 10 10 9 10 11 11 11 12 14 15 15 14 14 14 16 15 12 12 15 15 14 14 15 12 12 12 11 11 9 7 9 10 5 8 10 8 6 7 6 5 6 7 7 5 4 3 4 5 5 5 4 3 4 7 13 14 14 13 13 13 12 12 10 10 10 10 10 10 9 9 8 7
9 8 7 8 7 8 8 7 8 9 9 9 10 10 10 10 10 10 11 11 12 12 13 14 14 14 14 16 15 12 14 17 17 15 14 16 14 12 14 12 11 9 9 9 9 7 7 8 11 9 8 9 8 7 8 7 7 6 5 5 4 5 6 6 5 4 4 3 3 6 9 11 12 13 12 11 11 10 10 10 10 10 9 8 8
8 7 8 8 7 6 8 8 8 8 8 9 10 10 10 11 11 11 11 12 12 12 12 12 12 14 15 15 15 14 16 18 17 16 15 14 12 15 16 15 13 11 11 10 9 10 8 9 8 9 10 8 8 8 8 7 6 6 7 6 7 6 5 6 6 5 4 4 6 10 8 7 10 9 11 12 11 11 11 10 10 10 9 8 9
9 9 9 9 8 7 7 7 8 7 8 8 9 9 10 10 11 12 12 12 13 13 14 13 13 13 15 16 15 15 17 17 16 15 14 14 12 14 14 13 13 14 13 11 11 10 9 9 10 10 9 10 8 6 7 8 7 7 7 7 7 7 8 7 6 6 5 5 5 5 8 9 8 10 12 13 13 12 11 9 10 9 9 9 9
7 8 8 8 9 10 8 8 8 7 7 7 7 8 9 10 9 11 12 12 13 14 14 14 14 15 15 14 14 15 17 19 20 18 16 15 12 13 14 13 13 14 14 12 12 11 10 9 8 8 9 9 9 10 10 10 12 12 9 7 6 6 5 5 5 5 6 6 5 5 6 6 6 7 6 5 5 8 8 10 7 10 10 8 7
9 9 9 9 9 9 10 9 9 7 6 6 9 15 14 11 11 10 10 11 11 12 13 14 14 15 17 16 15 20 21 22 22 22 22 21 20 16 14 13 15 14 14 14 13 13 13 12 12 12 11 12 12 13 10 10 9 8 9 9 8 6 6 4 3 5 6 6 6 7 6 7 6 4 4 5 4 4 4 4 4 5 4 7 8
11 11 9 9 9 9 10 9 9 8 7 7 12 13 14 18 14 12 11 11 11 12 13 14 14 14 14 15 16 18 19 20 21 24 23 23 22 23 22 18 18 17 16 16 16 15 14 14 13 12 14 15 14 13 12 12 11 13 11 11 9 7 8 8 8 5 7 7 7 5 6 6 5 6 5 5 4 4 4 4 7 7 7 8 9
12 11 12 12 10 9 9 10 11 9 8 10 13 14 16 17 16 12 10 10 11 12 13 14 14 14 15 14 13 12 14 18 17 16 21 26 27 25 23 21 21 23 22 20 18 15 15 15 13 15 15 15 14 13 12 12 12 11 11 11 12 12 10 9 8 8 6 11 8 8 6 5 6 5 4 4 3 3 3 6 9 9 9 9 10
10 11 15 13 12 12 11 10 10 10 11 12 13 15 16 16 17 16 10 11 11 12 14 14 14 14 14 14 14 13 12 19 18 16 16 18 23 28 25 24 24 25 27 28 24 19 18 16 16 16 17 15 14 14 15 16 14 14 12 11 11 11 10 10 8 5 8 10 7 6 6 6 6 5 4 3 3 2 3 7 10 11 11 10 10
11 12 12 13 14 13 11 11 12 11 11 12 16 16 17 17 18 16 11 12 12 13 14 14 14 15 15 14 14 14 13 13 13 16 16 16 15 15 16 16 17 21 25 27 26 22 16 15 17 18 17 15 16 17 16 16 17 15 14 13 12 12 12 10 5 7 6 7 7 6 2 4 5 4 4 3 3 2 2 5 10 10 11 11 11
13 13 13 13 13 13 13 12 12 14 12 16 16 18 19 19 19 16 10 11 11 12 14 15 15 16 16 15 16 16 14 12 13 16 15 15 14 13 13 15 17 17 16 17 18 15 12 10 12 12 10 12 11 7 11 12 14 12 12 14 13 10 7 7 6 6 6 4 3 3 5 3 4 4 3 2 1 1 2 5 9 11 13 13 13
12 14 14 13 14 15 14 14 14 15 14 18 18 18 17 18 20 11 9 11 11 12 14 15 15 14 15 15 16 17 17 15 15 21 19 14 12 14 16 17 16 14 15 13 15 12 13 12 11 9 8 10 10 11 12 11 10 9 9 9 8 8 9 7 7 6 4 5 6 3 2 2 1 4 2 2 1 2 2 2 8 12 13 13 13
13 14 14 15 13 14 16 15 15 15 14 15 18 18 17 19 15 9 10 10 11 12 14 14 14 15 15 16 15 16 17 17 18 16 18 15 13 15 17 17 15 14 15 14 16 17 14 12 12 11 12 15 17 18 19 17 12 11 11 10 10 10 10 10 6 6 6 7 5 5 2 1 2 2 1 0 0 2 4 4 3 7 11 12 13
15 16 14 15 14 14 15 16 15 15 16 17 20 20 20 19 16 11 10 11 12 13 13 13 13 13 16 23 20 17 18 18 18 18 22 19 16 17 17 18 17 17 17 14 10 10 15 15 15 15 16 17 19 22 22 21 21 16 15 16 14 12 12 11 9 7 5 6 6 7 3 3 2 2 2 0 1 2 4 5 5 5 9 9 11
15 14 14 15 15 15 15 16 21 20 18 20 24 24 24 22 17 11 11 11 12 13 12 13 13 13 14 16 23 22 20 19 16 19 23 21 16 16 17 16 18 20 17 11 13 10 9 9 10 11 10 13 13 13 15 24 23 15 10 11 11 13 13 9 8 7 4 4 8 10 7 4 4 2 4 1 1 2 4 3 3 3 2 1 3
Wind_Direction
180 183 183 189 186 186 184 186 180 181 180 188 176 177 180 174 169 165 168 168 157 158 143 140 149 133 120 115 117 83 82 74 73 58 43 96 84 60 12 8 359 355 359 350 271 216 180 158 150 163 155 159 143 129 103 113 127 110 102 105 100 90 91 95 90 91 85 83 85 82 79 78 74 71 67 64 64 59 59 60 61 62 61 60 60
181 182 182 185 185 185 186 183 183 182 180 183 178 178 177 173 170 171 174 167 165 150 147 139 131 120 127 119 113 129 112 100 124 134 122 73 82 104 40 12 10 8 16 26 33 350 278 157 187 171 183 170 173 169 111 112 141 113 99 92 100 102 92 83 90 98 95 88 85 88 88 87 81 71 70 68 62 59 55 52 55 55 57 56 57
180 181 181 183 185 184 186 182 182 179 178 178 173 178 178 179 176 173 171 166 153 143 152 138 136 131 107 124 128 126 125 122 135 121 115 104 100 100 91 40 22 21 16 80 70 81 83 157 217 187 193 174 177 147 133 143 164 132 117 101 82 83 86 84 87 90 101 93 90 90 88 86 83 81 77 72 65 57 52 48 49 49 49 48 49
182 179 181 179 183 181 184 184 184 177 177 175 168 176 176 176 169 177 167 158 140 145 144 144 149 144 133 129 153 159 155 141 134 138 75 90 121 136 127 88 45 32 29 31 71 51 44 129 102 263 210 190 164 174 159 172 168 151 145 99 90 91 88 74 79 94 88 92 94 91 90 83 82 79 76 73 68 62 50 40 41 44 41 41 42
184 180 178 179 180 177 182 185 184 177 175 169 159 164 167 153 149 148 154 147 140 136 138 146 144 139 151 152 155 145 129 152 122 119 120 132 121 126 128 127 93 55 40 33 29 41 65 92 108 55 41 148 99 120 111 97 171 165 149 121 108 117 107 96 78 81 88 88 85 81 85 80 77 77 73 68 62 57 50 39 34 36 37 36 37
182 178 174 178 177 177 181 181 183 172 168 158 162 169 172 164 160 170 163 159 153 149 155 153 150 146 149 152 165 148 141 133 114 99 133 134 125 113 136 144 137 95 71 48 35 27 36 54 51 54 56 77 112 126 151 149 134 103 106 97 133 97 85 94 101 95 83 84 76 80 77 75 71 69 68 60 57 55 50 44 36 34 33 31 33
183 175 177 183 180 179 182 180 176 166 164 166 168 173 174 172 166 176 162 170 157 152 162 157 153 153 150 158 160 142 145 122 107 118 136 132 123 129 126 133 110 125 125 101 57 29 30 35 43 51 65 108 135 157 153 153 147 123 112 139 102 101 91 87 90 88 83 74 75 72 67 68 66 61 58 56 52 48 46 42 34 30 29 26 26
185 179 179 187 185 181 181 176 169 162 167 164 173 175 177 172 176 172 162 170 156 155 165 157 155 152 150 161 144 161 155 149 145 151 147 159 138 135 123 99 95 88 67 101 86 52 36 41 45 43 42 19 128 148 154 153 156 147 137 111 104 90 88 84 82 81 80 74 63 62 59 54 53 51 48 44 45 42 38 39 35 31 27 26 29
185 182 179 187 189 186 183 176 163 166 168 167 179 179 173 171 172 180 173 161 160 156 161 153 148 143 140 138 139 162 155 149 157 137 151 131 131 121 103 88 89 114 106 98 117 104 53 53 50 40 23 21 36 62 114 121 152 141 138 127 113 107 93 86 67 66 67 60 58 55 52 50 48 43 41 37 36 35 32 30 33 26 22 22 23
184 182 184 189 190 189 183 170 162 169 169 171 179 179 173 170 167 174 179 166 165 162 163 152 137 141 136 138 151 164 131 141 137 154 158 146 135 133 126 128 121 98 94 87 93 112 120 83 74 51 26 15 30 19 8 326 146 153 142 137 129 114 105 88 75 75 67 60 56 54 51 45 41 39 35 33 28 27 27 25 23 22 21 17 16
183 179 185 187 193 191 187 167 165 173 172 174 177 181 175 176 169 167 179 176 166 162 157 138 132 128 132 127 121 116 133 136 154 161 140 138 121 112 118 126 118 104 108 112 98 92 111 140 115 84 42 27 33 28 20 11 310 154 152 149 125 117 102 92 92 80 75 64 53 49 47 47 44 39 36 34 31 27 27 25 27 25 23 22 23
183 179 185 187 192 194 188 163 172 178 178 179 182 183 178 175 176 165 163 157 163 155 139 134 127 123 120 114 109 117 129 152 144 130 136 142 150 155 144 136 131 118 114 114 111 111 111 114 108 109 100 56 48 43 33 25 14 58 167 152 129 118 107 87 84 82 67 64 61 58 53 50 48 43 38 31 26 24 23 22 22 20 17 18 16
180 180 190 192 195 195 188 170 176 186 188 190 190 185 178 176 164 166 161 147 158 152 146 140 135 130 134 137 133 135 131 162 150 150 154 158 157 156 143 153 136 142 140 117 121 125 127 123 127 126 127 134 89 49 43 33 18 42 40 104 135 123 110 88 81 86 79 72 72 69 57 48 37 36 28 26 21 18 22 22 21 17 16 14 13
177 185 190 196 195 199 194 174 179 192 196 192 189 180 178 181 162 156 179 169 162 165 158 147 172 167 158 160 159 153 160 170 177 161 168 169 166 157 159 154 151 145 143 139 130 141 137 134 136 128 143 149 100 64 39 36 30 33 45 45 43 93 100 96 81 65 76 80 57 55 49 37 35 31 28 23 23 17 23 24 20 19 16 13 12
175 183 188 194 199 202 195 176 182 193 189 188 187 184 182 183 177 173 167 189 160 171 170 181 159 162 151 142 178 162 168 204 193 188 182 171 166 156 158 147 154 166 161 153 156 146 147 140 137 143 147 137 111 97 79 67 58 46 40 41 60 69 98 103 92 82 69 75 73 51 43 37 31 32 27 27 24 17 22 24 20 17 14 11 9
185 185 187 194 199 202 194 182 183 192 193 192 191 190 185 189 187 190 174 165 177 181 187 194 177 153 170 197 167 180 184 208 186 188 182 174 174 168 166 166 165 171 174 171 159 155 154 151 147 146 154 148 138 120 109 96 84 63 46 30 34 46 52 109 114 103 67 60 79 62 52 45 31 34 32 30 28 21 20 22 19 15 10 8 8
189 189 190 198 200 206 201 187 180 190 194 202 200 195 192 196 192 192 189 177 176 164 189 201 212 194 159 156 146 206 221 147 153 169 172 176 187 177 170 177 174 183 179 162 157 155 149 152 160 149 156 152 139 132 129 139 127 104 72 38 42 50 61 77 107 102 94 68 52 60 50 41 37 32 29 27 25 22 15 21 16 10 8 7 4
195 195 196 195 197 201 201 192 187 189 195 205 205 193 195 197 195 199 198 202 176 153 178 208 220 231 276 299 63 172 175 139 151 177 172 195 180 188 176 187 183 183 182 167 173 165 163 159 160 162 162 158 150 133 112 101 90 76 94 76 88 85 77 90 100 106 105 85 85 78 62 50 44 38 33 30 29 23 16 19 12 9 9 8 2
206 206 201 198 199 200 200 197 193 194 198 206 209 203 195 198 192 204 201 198 182 183 184 182 196 260 241 213 213 180 220 141 189 112 172 190 194 185 188 188 187 195 185 180 175 171 163 164 164 165 171 165 158 142 120 107 100 103 92 97 93 99 95 92 103 110 111 110 100 85 72 56 49 42 36 34 31 26 24 21 17 7 8 10 5
212 211 209 204 203 204 203 200 200 197 196 205 208 204 192 195 200 206 207 206 198 196 185 179 182 207 201 197 210 248 268 259 191 167 155 160 190 190 198 187 196 200 195 186 181 177 166 171 169 167 176 172 169 160 148 147 143 126 107 105 102 100 107 116 115 100 102 102 96 85 71 58 47 35 37 27 30 23 23 20 15 10 13 10 7
217 217 214 213 208 211 210 208 205 205 201 204 204 203 199 190 193 199 208 207 207 206 193 192 196 197 163 207 201 211 229 223 236 219 176 152 173 177 182 175 202 208 198 188 187 178 173 173 168 173 176 174 173 164 157 150 138 118 111 108 105 103 112 124 130 127 118 101 85 77 69 52 44 42 36 34 32 29 26 18 15 19 11 11 8
218 222 220 219 216 211 214 214 212 211 210 208 207 208 203 201 199 204 211 215 212 212 208 199 201 202 194 179 190 196 209 221 228 217 226 184 166 184 175 170 189 205 183 187 183 179 177 171 170 181 177 175 174 172 162 152 137 127 114 109 108 108 106 115 129 117 105 96 88 76 63 51 40 36 41 41 34 28 29 11 19 13 9 3 6
212 218 222 221 223 222 219 219 219 215 212 210 208 208 202 199 197 203 210 213 213 215 216 209 202 208 200 201 198 194 196 197 198 203 200 196 143 166 167 187 186 168 191 179 177 180 178 174 175 183 182 176 177 169 159 133 120 130 126 111 113 115 117 111 100 100 87 79 78 61 57 49 41 32 30 32 42 32 19 17 17 11 3 357 354
220 224 221 221 221 226 225 226 223 221 219 214 209 211 211 205 199 202 209 214 220 220 219 216 202 208 211 206 210 210 215 216 208 199 200 207 193 163 169 165 182 185 159 169 173 178 182 181 183 183 182 178 177 170 151 142 136 152 151 119 112 111 116 115 107 85 70 65 57 46 33 32 35 30 31 16 30 20 17 6 12 1 356 351 348
244 227 225 217 217 222 224 223 225 224 225 223 218 215 216 212 212 210 212 212 214 216 217 216 207 207 208 211 210 211 218 221 216 207 212 211 197 142 152 162 167 157 160 162 177 182 183 190 184 184 182 182 173 167 163 157 153 145 151 138 125 118 122 119 90 63 51 33 40 40 33 4 17 24 21 8 27 12 359 351 354 352 347 343 339
287 259 241 216 215 224 228 229 230 230 225 225 222 219 218 221 215 214 216 218 219 220 223 222 221 219 211 211 212 213 216 215 219 208 206 202 203 155 144 169 132 145 149 185 172 159 198 194 188 185 182 181 170 171 179 149 129 144 141 147 139 127 132 140 134 154 329 331 303 6 342 343 320 341 321 348 2 7 353 337 345 339 336 334 330
299 297 271 232 221 224 227 232 231 233 230 225 222 221 218 221 221 218 220 219 223 222 224 220 221 219 218 213 213 216 215 213 219 219 201 206 196 159 152 150 138 143 172 198 187 200 171 182 182 187 186 176 174 177 172 168 139 146 159 185 145 142 144 156 174 203 277 267 269 274 277 263 271 277 298 325 332 355 325 327 341 334 336 335 336
303 300 292 247 225 229 231 232 234 232 231 229 223 222 217 223 227 224 224 217 222 223 227 223 224 221 220 221 217 218 215 214 213 214 207 202 201 160 172 168 160 174 180 193 205 218 188 162 186 192 182 178 176 174 164 138 137 152 176 165 153 155 157 164 193 228 236 246 255 257 262 261 255 264 270 298 303 322 308 334 332 328 334 331 329
300 300 291 252 237 231 237 235 233 233 232 228 226 228 229 229 229 227 229 221 221 224 223 224 226 222 225 220 220 218 216 216 217 218 216 211 209 174 184 184 180 176 177 198 207 196 197 176 172 191 183 176 172 164 154 172 150 165 176 157 160 174 157 169 197 224 237 236 256 262 257 260 258 258 273 288 299 294 288 291 314 313 315 310 300
300 293 278 257 244 225 231 236 240 235 234 234 230 228 226 229 228 230 231 223 225 229 225 226 227 224 227 226 224 226 218 213 216 213 215 216 213 196 193 200 191 194 183 190 208 193 179 180 175 165 179 177 168 161 166 181 152 172 158 164 167 182 163 182 204 228 233 233 245 254 255 256 258 257 266 279 287 289 287 293 294 296 300 299 295
306 300 283 274 264 242 225 232 236 238 237 236 233 231 223 228 225 229 226 227 230 229 227 223 226 224 227 228 225 228 221 218 215 211 214 215 216 211 202 202 208 211 190 191 199 190 165 177 185 161 169 172 166 160 169 162 161 174 173 167 182 165 147 199 217 227 229 226 236 243 248 249 251 256 262 269 272 270 272 276 279 286 291 289 286
312 305 296 287 283 276 258 240 236 237 237 235 234 232 228 229 228 226 222 219 229 233 232 225 227 225 229 229 227 225 221 219 217 211 209 212 212 212 211 207 210 212 192 195 211 167 172 170 167 155 163 163 165 163 169 146 164 178 177 181 163 139 175 206 211 214 217 220 227 235 241 239 241 244 250 254 260 263 267 270 275 283 284 278 282
335 325 313 306 300 285 272 256 240 241 242 239 232 234 234 234 231 230 229 223 225 230 231 231 226 228 230 232 231 228 222 220 219 213 211 209 209 215 212 212 214 208 196 190 201 134 90 123 144 153 160 155 167 173 167 164 155 179 195 184 175 173 186 207 191 200 206 212 219 230 236 235 234 238 241 244 250 258 264 271 278 280 277 279 285
342 335 331 320 310 306 291 270 257 244 242 242 239 235 234 238 237 230 232 232 232 231 227 231 227 225 229 232 233 229 221 224 221 217 211 206 205 208 211 207 211 209 209 186 192 151 158 153 126 133 158 169 170 179 178 177 173 166 181 187 182 178 194 195 213 198 200 204 214 225 233 233 234 235 236 241 248 256 264 271 271 271 269 268 271
347 344 332 325 317 311 304 296 279 266 256 247 242 240 239 237 239 236 233 232 234 236 233 232 227 224 227 232 234 229 221 223 222 219 208 208 205 209 211 204 211 210 207 209 191 168 162 171 153 152 168 174 185 181 183 178 165 162 168 181 170 175 193 209 215 226 202 202 209 219 225 227 228 228 230 236 244 253 262 266 267 268 267 266 271
345 342 337 331 320 309 305 300 293 284 274 264 256 246 244 244 243 242 239 235 234 235 237 237 233 228 229 233 232 224 219 223 222 217 212 208 205 207 209 207 210 208 201 206 219 170 169 156 177 168 167 165 184 166 173 158 161 165 170 158 159 178 186 207 220 227 206 200 205 215 223 223 224 224 227 232 239 248 255 261 263 265 267 272 279
343 337 332 331 328 321 310 303 299 290 281 275 268 260 253 248 246 246 244 242 240 240 240 240 236 232 234 235 234 220 218 224 225 218 215 209 205 203 206 207 206 203 195 202 209 191 164 171 154 159 152 158 163 151 163 162 160 159 160 169 173 182 193 203 208 223 226 211 209 218 227 228 225 226 227 231 239 246 253 261 267 269 271 276 280
336 337 331 329 326 321 313 306 299 294 289 284 276 270 265 259 252 249 250 248 248 247 244 241 238 235 238 239 236 222 221 223 224 219 216 211 206 202 206 205 200 193 196 199 198 199 167 170 158 151 164 163 166 164 170 167 166 165 173 181 182 191 187 194 204 204 209 208 207 222 231 231 229 228 228 233 241 248 254 257 261 266 269 272 274
328 326 327 321 315 309 305 304 299 294 293 288 283 276 272 267 260 257 256 253 251 250 250 248 242 240 239 240 238 228 228 228 228 221 216 214 208 207 206 203 195 191 194 191 190 191 181 158 161 160 155 166 166 159 165 168 173 179 178 173 196 193 192 193 199 195 192 199 213 215 211 210 219 218 224 232 241 247 250 249 254 258 264 266 268
319 321 323 320 314 307 298 297 293 293 288 286 280 276 274 267 263 262 258 256 255 253 253 251 246 241 239 239 237 232 230 231 228 227 219 216 211 214 210 201 195 193 194 191 190 193 186 173 170 165 164 159 163 145 140 157 172 196 201 193 188 180 189 194 202 189 181 184 202 207 217 223 230 229 234 238 240 239 236 241 247 250 253 259 261
298 296 300 305 310 310 301 292 292 289 286 280 280 276 278 272 265 263 261 257 255 258 257 254 248 246 245 243 239 235 234 235 232 228 222 217 210 214 213 201 201 197 198 193 193 191 192 181 173 163 159 166 172 158 161 177 189 187 176 179 204 193 169 175 199 203 178 185 200 198 201 202 214 216 207 206 219 218 225 229 239 245 245 247 269
296 298 295 292 293 297 301 301 295 289 280 273 267 270 266 266 269 266 263 260 258 257 257 258 256 248 246 246 243 237 234 234 232 230 228 223 220 218 214 199 200 201 200 195 194 195 191 189 186 173 176 188 181 179 173 182 169 156 164 179 189 183 156 179 190 202 189 185 192 205 200 192 197 214 212 213 214 199 212 212 211 211 240 273 282
298 293 281 278 282 285 292 292 290 286 278 270 265 265 264 264 264 264 264 264 259 258 257 256 256 253 249 245 245 241 236 234 233 230 230 229 227 225 222 211 206 202 197 201 203 194 194 198 192 186 191 188 188 183 177 165 172 179 177 178 175 170 176 176 196 183 189 184 204 203 204 181 176 211 215 208 201 199 215 219 233 241 257 272 281
298 296 292 285 275 270 278 281 284 281 277 270 272 273 273 267 264 263 261 261 260 258 258 255 255 253 251 248 244 240 234 234 233 230 230 230 229 228 225 221 218 216 212 203 199 199 199 200 194 199 193 191 183 176 175 170 174 179 181 176 181 185 181 194 196 192 179 175 190 200 205 169 176 211 221 210 196 199 221 238 247 255 264 274 278
293 291 291 290 287 282 273 262 265 273 280 278 272 276 277 272 263 261 263 258 255 256 256 255 255 254 251 249 250 241 237 230 228 227 228 228 229 229 228 225 224 220 221 223 219 206 194 199 200 204 199 184 176 189 182 176 171 175 169 174 184 191 193 196 199 150 157 170 177 199 197 186 175 199 213 208 197 201 228 253 260 265 272 274 274
294 288 285 285 287 288 282 282 279 273 265 264 271 272 274 273 269 261 254 257 256 255 254 252 252 254 252 253 252 250 242 229 224 227 227 227 225 222 223 224 226 226 225 224 223 221 218 210 203 203 200 188 192 191 180 172 170 175 172 180 180 182 189 187 144 129 134 157 182 180 183 199 177 188 212 198 173 211 219 253 262 267 273 274 274
298 294 291 288 283 282 281 282 284 283 276 264 259 262 268 271 269 268 258 256 254 253 254 253 251 251 251 253 253 254 251 236 227 225 222 220 218 217 217 219 223 222 218 219 220 218 213 215 218 217 202 197 200 166 165 175 181 176 175 174 171 168 134 89 70 115 127 154 165 184 186 158 176 186 209 165 160 234 232 259 268 272 274 275 275
289 290 285 281 284 285 282 280 280 280 281 275 266 254 256 265 271 269 260 257 255 253 252 252 252 250 250 247 250 252 251 250 238 222 217 213 211 212 216 220 221 221 222 216 215 211 210 209 210 199 180 172 163 161 166 164 164 144 115 108 106 128 138 147 158 161 152 169 161 183 167 183 182 163 192 134 153 250 273 270 270 272 270 268 265
285 285 285 283 283 283 285 283 278 277 277 274 272 264 261 260 258 261 263 261 256 254 252 251 249 250 249 247 245 248 247 248 241 204 203 185 209 209 217 220 219 219 225 220 209 202 187 176 176 174 158 156 155 158 161 158 155 146 134 135 161 156 156 171 173 170 178 165 170 178 173 167 208 170 178 230 119 284 281 273 269 270 270 263 257
282 285 283 279 278 279 280 280 280 283 281 276 270 264 261 260 256 255 254 255 258 259 259 252 250 248 245 243 242 244 247 246 238 191 201 194 209 211 215 217 217 218 224 213 198 195 173 164 167 167 168 161 160 163 164 161 156 155 159 171 170 159 181 184 173 169 156 157 171 158 140 199 149 174 148 4 10 246 249 255 263 263 264 262 257
277 279 275 273 273 274 274 275 282 282 280 279 276 270 265 258 251 249 251 250 250 250 255 257 251 248 249 243 237 237 241 245 221 192 199 191 209 209 213 213 217 221 212 162 180 183 173 174 177 169 172 171 164 162 165 164 163 164 169 161 152 167 173 174 162 132 139 200 166 159 145 195 137 211 128 94 295 239 193 237 259 250 220 216 269